Time,TemperatureF,DewpointF,PressureIn,WindDirection,WindDirectionDegrees,WindSpeedMPH,WindSpeedGustMPH,Humidity,HourlyPrecipIn,Conditions,Clouds,dailyrainin,SoftwareType,DateUTC
2013-05-29 00:00:00,57.0,56.2,30.12,WNW,290,0.0,0.0,97,0.00,,,0.00,Wunderground v.1.15,2013-05-29 04:00:00,
2013-05-29 00:02:00,57.0,56.0,30.12,WNW,290,0.0,0.0,97,0.00,,,0.00,weatherlink.com 1.10,2013-05-29 04:02:00,
2013-05-29 00:10:00,57.0,56.2,30.11,WNW,290,0.0,0.0,97,0.00,,,0.00,Wunderground v.1.15,2013-05-29 04:10:00,
2013-05-29 00:17:00,57.1,56.0,30.11,WNW,290,0.0,0.0,97,0.00,,,0.00,weatherlink.com 1.10,2013-05-29 04:17:00,
2013-05-29 00:30:00,57.1,56.3,30.10,WNW,290,0.0,0.0,97,0.00,,,0.00,Wunderground v.1.15,2013-05-29 04:30:00,
2013-05-29 00:40:00,57.1,56.5,30.10,WNW,290,0.0,0.0,98,0.00,,,0.00,Wunderground v.1.15,2013-05-29 04:40:00,
2013-05-29 00:47:00,57.1,57.0,30.10,WNW,290,0.0,0.0,98,0.00,,,0.00,weatherlink.com 1.10,2013-05-29 04:47:00,
2013-05-29 01:00:00,57.1,56.5,30.10,WNW,290,0.0,0.0,98,0.00,,,0.00,Wunderground v.1.15,2013-05-29 05:00:00,
2013-05-29 01:10:00,57.2,56.6,30.10,WNW,290,0.0,0.0,98,0.00,,,0.00,Wunderground v.1.15,2013-05-29 05:10:00,
2013-05-29 01:18:00,57.1,57.0,30.10,WNW,290,0.0,0.0,98,0.00,,,0.00,weatherlink.com 1.10,2013-05-29 05:18:00,
2013-05-29 01:30:00,57.1,56.5,30.09,WNW,290,0.0,0.0,98,0.00,,,0.00,Wunderground v.1.15,2013-05-29 05:30:00,
2013-05-29 01:40:00,57.1,56.5,30.09,WNW,290,0.0,0.0,98,0.00,,,0.00,Wunderground v.1.15,2013-05-29 05:40:00,
2013-05-29 01:47:00,57.2,57.0,30.09,WNW,290,0.0,0.0,98,0.00,,,0.00,weatherlink.com 1.10,2013-05-29 05:47:00,
2013-05-29 02:00:00,57.2,56.6,30.09,WNW,290,0.0,0.0,98,0.00,,,0.00,Wunderground v.1.15,2013-05-29 06:00:00,
2013-05-29 02:10:00,57.2,56.6,30.08,WNW,290,0.0,0.0,98,0.00,,,0.00,Wunderground v.1.15,2013-05-29 06:10:00,
2013-05-29 02:17:00,57.2,57.0,30.09,WNW,290,0.0,0.0,98,0.00,,,0.00,weatherlink.com 1.10,2013-05-29 06:17:00,
2013-05-29 02:30:00,57.2,56.6,30.07,WNW,290,0.0,0.0,98,0.00,,,0.00,Wunderground v.1.15,2013-05-29 06:30:00,
2013-05-29 02:40:00,57.2,56.6,30.07,WNW,290,0.0,0.0,98,0.00,,,0.00,Wunderground v.1.15,2013-05-29 06:40:00,
2013-05-29 02:48:00,57.2,57.0,30.07,WNW,290,0.0,0.0,98,0.00,,,0.00,weatherlink.com 1.10,2013-05-29 06:48:00,
2013-05-29 03:00:00,57.3,56.7,30.07,WNW,290,0.0,0.0,98,0.00,,,0.00,Wunderground v.1.15,2013-05-29 07:00:00,
2013-05-29 03:10:00,57.3,56.7,30.07,WNW,290,0.0,0.0,98,0.00,,,0.00,Wunderground v.1.15,2013-05-29 07:10:00,
2013-05-29 03:17:00,57.3,57.0,30.06,WNW,290,0.0,0.0,98,0.00,,,0.00,weatherlink.com 1.10,2013-05-29 07:17:00,
2013-05-29 03:30:00,57.3,56.7,30.06,WNW,290,0.0,0.0,98,0.00,,,0.00,Wunderground v.1.15,2013-05-29 07:30:00,
2013-05-29 03:40:00,57.3,56.7,30.06,WNW,290,0.0,0.0,98,0.00,,,0.00,Wunderground v.1.15,2013-05-29 07:40:00,
2013-05-29 03:48:00,57.3,57.0,30.06,WNW,290,0.0,0.0,98,0.00,,,0.00,weatherlink.com 1.10,2013-05-29 07:48:00,
2013-05-29 04:00:00,57.3,56.7,30.06,WNW,290,0.0,0.0,98,0.00,,,0.00,Wunderground v.1.15,2013-05-29 08:00:00,
2013-05-29 04:10:00,57.3,56.7,30.05,WNW,290,0.0,0.0,98,0.00,,,0.00,Wunderground v.1.15,2013-05-29 08:10:00,
2013-05-29 04:18:00,57.3,57.0,30.05,WNW,290,0.0,0.0,98,0.00,,,0.00,weatherlink.com 1.10,2013-05-29 08:18:00,
2013-05-29 04:30:00,57.3,56.7,30.05,WNW,290,0.0,0.0,98,0.00,,,0.00,Wunderground v.1.15,2013-05-29 08:30:00,
2013-05-29 04:40:00,57.4,56.8,30.05,WNW,290,0.0,0.0,98,0.00,,,0.00,Wunderground v.1.15,2013-05-29 08:40:00,
2013-05-29 04:48:00,57.4,57.0,30.05,WNW,290,0.0,0.0,98,0.00,,,0.00,weatherlink.com 1.10,2013-05-29 08:48:00,
2013-05-29 05:00:00,57.5,56.9,30.05,WNW,290,0.0,0.0,98,0.00,,,0.00,Wunderground v.1.15,2013-05-29 09:00:00,
2013-05-29 05:10:00,57.4,56.8,30.05,WNW,290,0.0,0.0,98,0.00,,,0.00,Wunderground v.1.15,2013-05-29 09:10:00,
2013-05-29 05:19:00,57.5,57.0,30.06,WNW,290,0.0,0.0,98,0.00,,,0.00,weatherlink.com 1.10,2013-05-29 09:19:00,
2013-05-29 05:30:00,57.5,56.9,30.05,WNW,290,0.0,0.0,98,0.00,,,0.00,Wunderground v.1.15,2013-05-29 09:30:00,
2013-05-29 05:40:00,57.5,56.9,30.05,WNW,290,0.0,0.0,98,0.00,,,0.00,Wunderground v.1.15,2013-05-29 09:40:00,
2013-05-29 05:49:00,57.5,57.0,30.06,WNW,290,0.0,0.0,98,0.00,,,0.00,weatherlink.com 1.10,2013-05-29 09:49:00,
2013-05-29 06:00:00,57.5,56.9,30.06,WNW,290,0.0,0.0,98,0.00,,,0.00,Wunderground v.1.15,2013-05-29 10:00:00,
2013-05-29 06:10:00,57.5,56.9,30.06,WNW,290,0.0,0.0,98,0.00,,,0.00,Wunderground v.1.15,2013-05-29 10:10:00,
2013-05-29 06:18:00,57.4,57.0,30.06,WNW,290,0.0,0.0,98,0.00,,,0.00,weatherlink.com 1.10,2013-05-29 10:18:00,
2013-05-29 06:30:00,57.5,56.9,30.06,WNW,290,0.0,0.0,98,0.00,,,0.00,Wunderground v.1.15,2013-05-29 10:30:00,
2013-05-29 06:40:00,57.5,56.9,30.07,WNW,290,0.0,0.0,98,0.00,,,0.00,Wunderground v.1.15,2013-05-29 10:40:00,
2013-05-29 06:49:00,57.5,57.0,30.06,WNW,290,0.0,0.0,98,0.00,,,0.00,weatherlink.com 1.10,2013-05-29 10:49:00,
2013-05-29 07:00:00,57.5,56.9,30.06,WNW,290,0.0,0.0,98,0.00,,,0.00,Wunderground v.1.15,2013-05-29 11:00:00,
2013-05-29 07:10:00,57.6,57.0,30.07,WNW,290,0.0,0.0,98,0.00,,,0.00,Wunderground v.1.15,2013-05-29 11:10:00,
2013-05-29 07:19:00,57.6,57.0,30.07,WNW,290,0.0,0.0,98,0.00,,,0.00,weatherlink.com 1.10,2013-05-29 11:19:00,
2013-05-29 07:30:00,57.7,57.1,30.07,WNW,290,0.0,0.0,98,0.00,,,0.00,Wunderground v.1.15,2013-05-29 11:30:00,
2013-05-29 07:40:00,57.8,57.2,30.07,WNW,290,0.0,0.0,98,0.00,,,0.00,Wunderground v.1.15,2013-05-29 11:40:00,
2013-05-29 07:50:00,57.9,57.0,30.07,WNW,290,0.0,0.0,98,0.00,,,0.00,weatherlink.com 1.10,2013-05-29 11:50:00,
2013-05-29 08:00:00,58.0,57.4,30.07,WNW,290,0.0,0.0,98,0.00,,,0.01,Wunderground v.1.15,2013-05-29 12:00:00,
2013-05-29 08:10:00,58.1,57.5,30.08,WNW,290,0.0,0.0,98,0.00,,,0.01,Wunderground v.1.15,2013-05-29 12:10:00,
2013-05-29 08:20:00,58.1,58.0,30.07,WNW,290,0.0,0.0,98,0.01,,,0.01,weatherlink.com 1.10,2013-05-29 12:20:00,
2013-05-29 08:30:00,58.2,57.6,30.07,WNW,290,0.0,0.0,98,0.00,,,0.01,Wunderground v.1.15,2013-05-29 12:30:00,
2013-05-29 08:35:00,58.3,58.0,30.08,WNW,290,0.0,0.0,98,0.01,,,0.01,weatherlink.com 1.10,2013-05-29 12:35:00,
2013-05-29 08:50:00,58.6,58.0,30.08,WNW,290,0.0,0.0,98,0.00,,,0.01,Wunderground v.1.15,2013-05-29 12:50:00,
2013-05-29 09:00:00,58.7,58.1,30.08,WNW,290,0.0,0.0,98,0.00,,,0.01,Wunderground v.1.15,2013-05-29 13:00:00,
2013-05-29 09:10:00,58.9,58.3,30.07,WNW,290,0.0,0.0,98,0.00,,,0.01,Wunderground v.1.15,2013-05-29 13:10:00,
2013-05-29 09:20:00,59.1,58.5,30.08,WNW,290,0.0,0.0,98,0.00,,,0.01,Wunderground v.1.15,2013-05-29 13:20:00,
2013-05-29 09:30:00,59.4,59.1,30.07,WNW,290,0.0,0.0,99,0.00,,,0.01,Wunderground v.1.15,2013-05-29 13:30:00,
2013-05-29 09:35:00,59.6,59.0,30.08,WNW,290,0.0,1.0,99,0.00,,,0.01,weatherlink.com 1.10,2013-05-29 13:35:00,
2013-05-29 09:50:00,60.0,59.7,30.07,WNW,290,0.0,0.0,99,0.00,,,0.01,Wunderground v.1.15,2013-05-29 13:50:00,
2013-05-29 10:00:00,60.3,60.0,30.07,WNW,290,0.0,0.0,99,0.00,,,0.01,Wunderground v.1.15,2013-05-29 14:00:00,
2013-05-29 10:06:00,60.5,60.0,30.07,WNW,290,0.0,1.0,99,0.00,,,0.01,weatherlink.com 1.10,2013-05-29 14:06:00,
2013-05-29 10:20:00,60.4,59.8,30.07,WNW,290,0.0,0.0,98,0.00,,,0.01,Wunderground v.1.15,2013-05-29 14:20:00,
2013-05-29 10:30:00,60.5,60.2,30.07,WNW,290,0.0,0.0,99,0.00,,,0.01,Wunderground v.1.15,2013-05-29 14:30:00,
2013-05-29 10:37:00,60.8,61.0,30.07,WNW,290,0.0,0.0,99,0.00,,,0.01,weatherlink.com 1.10,2013-05-29 14:37:00,
2013-05-29 10:50:00,61.3,61.0,30.06,WNW,290,0.0,0.0,99,0.00,,,0.01,Wunderground v.1.15,2013-05-29 14:50:00,
2013-05-29 11:00:00,61.7,61.4,30.06,WNW,290,0.0,3.0,99,0.00,,,0.01,Wunderground v.1.15,2013-05-29 15:00:00,
2013-05-29 11:06:00,61.7,62.0,30.06,WNW,290,0.0,4.0,99,0.00,,,0.01,weatherlink.com 1.10,2013-05-29 15:06:00,
2013-05-29 11:20:00,62.3,62.0,30.06,WNW,290,0.0,0.0,99,0.00,,,0.01,Wunderground v.1.15,2013-05-29 15:20:00,
2013-05-29 11:30:00,63.0,62.7,30.06,WNW,290,0.0,0.0,99,0.00,,,0.01,Wunderground v.1.15,2013-05-29 15:30:00,
2013-05-29 11:36:00,63.4,63.0,30.06,WNW,290,0.0,4.0,99,0.00,,,0.01,weatherlink.com 1.10,2013-05-29 15:36:00,
2013-05-29 11:50:00,64.5,64.2,30.06,WNW,290,0.0,0.0,99,0.00,,,0.01,Wunderground v.1.15,2013-05-29 15:50:00,
2013-05-29 12:00:00,64.8,64.5,30.06,WNW,289,0.0,2.0,99,0.00,,,0.01,Wunderground v.1.15,2013-05-29 16:00:00,
2013-05-29 12:06:00,65.2,65.0,30.05,WNW,289,0.0,3.0,99,0.00,,,0.01,weatherlink.com 1.10,2013-05-29 16:06:00,
2013-05-29 12:20:00,66.4,66.1,30.05,WNW,282,0.0,0.0,99,0.00,,,0.01,Wunderground v.1.15,2013-05-29 16:20:00,
2013-05-29 12:30:00,67.3,66.7,30.05,WSW,248,0.0,0.0,98,0.00,,,0.01,Wunderground v.1.15,2013-05-29 16:30:00,
2013-05-29 12:37:00,68.3,68.0,30.05,WSW,251,0.0,1.0,98,0.00,,,0.01,weatherlink.com 1.10,2013-05-29 16:37:00,
2013-05-29 12:50:00,69.7,68.2,30.05,South,182,0.0,0.0,95,0.00,,,0.01,Wunderground v.1.15,2013-05-29 16:50:00,
2013-05-29 13:00:00,71.4,69.0,30.05,West,269,1.0,1.0,92,0.00,,,0.01,Wunderground v.1.15,2013-05-29 17:00:00,
2013-05-29 13:08:00,72.8,70.0,30.04,West,271,0.0,6.0,90,0.00,,,0.01,weatherlink.com 1.10,2013-05-29 17:08:00,
2013-05-29 13:20:00,74.9,70.8,30.04,SW,229,0.0,3.0,87,0.00,,,0.01,Wunderground v.1.15,2013-05-29 17:20:00,
2013-05-29 13:30:00,76.3,70.4,30.04,East,100,0.0,5.0,82,0.00,,,0.01,Wunderground v.1.15,2013-05-29 17:30:00,
2013-05-29 13:38:00,77.1,70.0,30.03,NNW,340,0.0,7.0,78,0.00,,,0.01,weatherlink.com 1.10,2013-05-29 17:38:00,
2013-05-29 13:50:00,78.3,70.9,30.03,WNW,300,0.0,0.0,78,0.00,,,0.01,Wunderground v.1.15,2013-05-29 17:50:00,
2013-05-29 14:00:00,79.2,71.4,30.03,WSW,239,0.0,0.0,77,0.00,,,0.01,Wunderground v.1.15,2013-05-29 18:00:00,
2013-05-29 14:08:00,79.6,71.0,30.03,SSW,212,1.0,3.0,74,0.00,,,0.01,weatherlink.com 1.10,2013-05-29 18:08:00,
2013-05-29 14:20:00,79.4,70.4,30.02,NNE,28,0.0,0.0,74,0.00,,,0.01,Wunderground v.1.15,2013-05-29 18:20:00,
2013-05-29 14:30:00,79.5,70.1,30.02,SW,224,0.0,2.0,73,0.00,,,0.01,Wunderground v.1.15,2013-05-29 18:30:00,
2013-05-29 14:38:00,79.4,70.0,30.02,SW,224,0.0,4.0,72,0.00,,,0.01,weatherlink.com 1.10,2013-05-29 18:38:00,
2013-05-29 14:50:00,79.7,69.9,30.02,SW,216,0.0,2.0,72,0.00,,,0.01,Wunderground v.1.15,2013-05-29 18:50:00,
2013-05-29 15:00:00,79.7,69.9,30.02,NE,51,0.0,0.0,72,0.00,,,0.01,Wunderground v.1.15,2013-05-29 19:00:00,
2013-05-29 15:08:00,79.8,70.0,30.02,NNE,30,1.0,2.0,72,0.00,,,0.01,weatherlink.com 1.10,2013-05-29 19:08:00,
2013-05-29 15:20:00,79.9,70.5,30.02,WNW,294,0.0,0.0,73,0.00,,,0.01,Wunderground v.1.15,2013-05-29 19:20:00,
2013-05-29 15:30:00,80.6,70.3,30.02,NNW,340,0.0,4.0,71,0.00,,,0.01,Wunderground v.1.15,2013-05-29 19:30:00,
2013-05-29 15:38:00,81.1,71.0,30.02,North,355,4.0,6.0,71,0.00,,,0.01,weatherlink.com 1.10,2013-05-29 19:38:00,
2013-05-29 15:50:00,81.2,70.1,30.01,SW,214,1.0,1.0,69,0.00,,,0.01,Wunderground v.1.15,2013-05-29 19:50:00,
2013-05-29 16:08:00,82.0,70.0,30.00,North,351,1.0,5.0,67,0.00,,,0.01,weatherlink.com 1.10,2013-05-29 20:08:00,
2013-05-29 16:24:00,81.7,70.0,30.00,North,360,0.0,5.0,67,0.00,,,0.01,weatherlink.com 1.10,2013-05-29 20:24:00,
2013-05-29 16:39:00,81.8,70.0,30.00,WNW,283,0.0,4.0,68,0.00,,,0.01,weatherlink.com 1.10,2013-05-29 20:39:00,
2013-05-29 16:54:00,81.3,70.0,30.00,NNW,330,2.0,8.0,69,0.00,,,0.01,weatherlink.com 1.10,2013-05-29 20:54:00,
2013-05-29 17:09:00,81.5,71.0,30.00,WNW,302,0.0,1.0,71,0.00,,,0.01,weatherlink.com 1.10,2013-05-29 21:09:00,
2013-05-29 17:24:00,81.7,71.0,29.99,NW,321,0.0,1.0,71,0.00,,,0.01,weatherlink.com 1.10,2013-05-29 21:24:00,
2013-05-29 17:39:00,82.3,71.0,29.99,West,281,1.0,5.0,69,0.00,,,0.01,weatherlink.com 1.10,2013-05-29 21:39:00,
2013-05-29 17:54:00,82.6,71.0,29.98,NW,323,0.0,5.0,67,0.00,,,0.01,weatherlink.com 1.10,2013-05-29 21:54:00,
2013-05-29 18:09:00,82.8,71.0,29.98,NNW,335,0.0,5.0,67,0.00,,,0.01,weatherlink.com 1.10,2013-05-29 22:09:00,
2013-05-29 18:24:00,83.2,71.0,29.98,WNW,292,0.0,9.0,66,0.00,,,0.01,weatherlink.com 1.10,2013-05-29 22:24:00,
2013-05-29 18:39:00,83.3,70.0,29.98,NW,309,0.0,6.0,65,0.00,,,0.01,weatherlink.com 1.10,2013-05-29 22:39:00,
2013-05-29 18:54:00,82.8,69.0,29.97,NNW,335,0.0,8.0,64,0.00,,,0.01,weatherlink.com 1.10,2013-05-29 22:54:00,
2013-05-29 19:09:00,82.4,69.0,29.98,ESE,112,2.0,2.0,65,0.00,,,0.01,weatherlink.com 1.10,2013-05-29 23:09:00,
2013-05-29 19:24:00,82.2,69.0,29.97,SSW,192,0.0,1.0,65,0.00,,,0.01,weatherlink.com 1.10,2013-05-29 23:24:00,
2013-05-29 19:39:00,81.4,69.0,29.97,SSW,194,0.0,1.0,66,0.00,,,0.01,weatherlink.com 1.10,2013-05-29 23:39:00,
2013-05-29 19:54:00,80.7,69.0,29.98,West,274,0.0,3.0,68,0.00,,,0.01,weatherlink.com 1.10,2013-05-29 23:54:00,
2013-05-29 20:09:00,79.9,69.0,29.97,West,274,0.0,0.0,69,0.00,,,0.01,weatherlink.com 1.10,2013-05-30 00:09:00,
2013-05-29 20:24:00,79.1,69.0,29.98,West,274,0.0,0.0,71,0.00,,,0.01,weatherlink.com 1.10,2013-05-30 00:24:00,
2013-05-29 20:39:00,78.3,69.0,29.98,West,274,0.0,1.0,72,0.00,,,0.01,weatherlink.com 1.10,2013-05-30 00:39:00,
2013-05-29 20:54:00,77.5,69.0,29.97,West,274,0.0,1.0,74,0.00,,,0.01,weatherlink.com 1.10,2013-05-30 00:54:00,
2013-05-29 21:09:00,77.1,68.0,29.97,West,274,0.0,1.0,74,0.00,,,0.01,weatherlink.com 1.10,2013-05-30 01:09:00,
2013-05-29 21:24:00,77.2,68.0,29.98,West,277,0.0,2.0,73,0.00,,,0.01,weatherlink.com 1.10,2013-05-30 01:24:00,
2013-05-29 21:39:00,77.1,67.0,29.99,West,277,0.0,1.0,72,0.00,,,0.01,weatherlink.com 1.10,2013-05-30 01:39:00,
2013-05-29 21:54:00,76.7,68.0,30.00,West,277,0.0,1.0,74,0.00,,,0.01,weatherlink.com 1.10,2013-05-30 01:54:00,
2013-05-29 22:09:00,75.8,68.0,30.01,West,277,0.0,0.0,76,0.00,,,0.01,weatherlink.com 1.10,2013-05-30 02:09:00,
2013-05-29 22:24:00,75.0,67.0,30.01,West,277,0.0,0.0,77,0.00,,,0.01,weatherlink.com 1.10,2013-05-30 02:24:00,
2013-05-29 22:39:00,74.5,68.0,30.02,West,277,0.0,1.0,79,0.00,,,0.01,weatherlink.com 1.10,2013-05-30 02:39:00,
2013-05-29 22:54:00,74.0,68.0,30.02,West,277,0.0,0.0,80,0.00,,,0.01,weatherlink.com 1.10,2013-05-30 02:54:00,
2013-05-29 23:09:00,73.4,67.0,30.03,West,277,0.0,0.0,81,0.00,,,0.01,weatherlink.com 1.10,2013-05-30 03:09:00,
2013-05-29 23:24:00,73.4,67.0,30.02,West,277,0.0,1.0,79,0.00,,,0.01,weatherlink.com 1.10,2013-05-30 03:24:00,
2013-05-29 23:39:00,73.4,67.0,30.03,West,277,0.0,0.0,79,0.00,,,0.01,weatherlink.com 1.10,2013-05-30 03:39:00,
2013-05-29 23:54:00,73.3,66.0,30.03,West,277,0.0,1.0,79,0.00,,,0.01,weatherlink.com 1.10,2013-05-30 03:54:00,